Weather in Fedos'yevka

Russia / Primorsky Krai     46°32′08″N   134°16′19″E
temp.,
°C
wind,
m/s
gust,
m/s
humid.,
%
clouds,
%
prec.,
mm/h
press.,
hPa
HPBL,
m
21 april, wed
wed2101:00+2w37390 0.0 1017108
04:000wsw36410 0.0 101892
07:00+1wsw24405 0.0 101983
10:00+10wnw36240 0.0 1020755
13:00+17nw48190 0.0 10181806
16:00+19nw57180 0.0 10182191
19:00+17nw22270 0.0 101821
22:00+12n11310 0.0 102010
22 april, thu
thu2201:00+10e11360 0.0 102110
04:00+7s11430 0.0 102210
07:00+7e21490 0.0 102312
10:00+15se23340 0.0 1023370
13:00+21s33220 0.0 10221019
16:00+24s34180 0.0 10201638
19:00+21sse222695 0.0 101923
22:00+16sw3332100 0.0 102135
23 april, fri
fri2301:00+12sw51443100 0.0 1023450
04:00+10sw51444100 0.0 1024507
07:00+9ssw41448100 0.0 1024506
10:00+14sw61039100 0.0 1023760
13:00+18sw7936100 0.0 1022984
16:00+19wsw5740100 0.0 10201164
19:00+17wnw4847100 0.0 1020305
22:00+14wnw3662100 0.0 1021140
24 april, sat
sat2401:00+11wnw3768100 0.0 1021491
04:00+7nw51073100 1.1 1022775
07:00+5wnw4862100 0.9 1022986
10:00+6nw463696 1.0 10221113
13:00+11nw57220 0.0 10212131
16:00+13nnw68190 0.0 10192261
19:00+11nw59250 0.0 10181798
22:00+8nw61228100 0.0 1019631
25 april, sun
sun2501:00+5wnw383610 0.0 1018158
04:00+6w61235100 0.0 1015755
07:00+5nw71344100 0.2 10141802
10:00+6nnw811305 0.3 10152101
13:00+9nnw81223100 0.0 10153368
16:00+10nnw7101756 0.0 10153196
19:00+9nw58221 0.0 10151675
22:00+5w35280 0.0 101777